Home > Weather > São Paulo > Past weeks

Flag for Brazil Weather for the Past 2 Weeks in São Paulo, São Paulo, Brazil

Now
68 °F

Passing clouds.


Feels Like: 68 °F
Forecast: 64 / 85 °F
Wind: 9 mph from Southeast

Location: Sao Paulo Airport

Current Time: Feb 13, 2016 at 1:42:26 AM

Latest Report: Feb 13, 2016 at 12:00 AM


Visibility: N/A

Pressure: 30.04 "Hg (27.48 "Hg at 765m altitude)

Humidity: 78%

Dew point: 61 °F

Location of São PauloLocation

Historic Weather in São Paulo — Graph

°F

São Paulo Temperature Yesterday

Maximum temperature yesterday: 79 °F (at 1:00 PM)
Minimum temperature yesterday: 64 °F (at 4:00 AM)
Average temperature yesterday: 71 °F

High & Low Weather Summary for the Past Weeks

 TemperatureHumidityPressure
High91 °F (Feb 5, 3:00 PM)100% (Feb 11, 3:00 PM)30.18 "Hg (Feb 11, 3:00 PM)
Low37 °F (Feb 11, 3:00 PM)27% (Jan 31, 3:00 PM)29.89 "Hg (Feb 5, 12:00 PM)
Average77 °F68%30.09 "Hg
* Reported Jan 29 12:01 AM — Midnight between Feb 12 and Feb 13, São Paulo, Weather by CustomWeather, © 2016

Note: Actual official high and low records may vary slightly from our data, if they occured in-between our weather recording intervals... More about our weather records

Advertising

São Paulo Weather History for the Previous 24 Hours

 ConditionsComfort  
Time TempWeatherWind HumidityBarometerVisibility
12:00 AM
Sat, Feb 13
68 °FPassing clouds.9 mph78%30.04 "HgN/A
11:00 PM
Fri, Feb 12
68 °FPassing clouds.10 mph78%30.07 "HgN/A
10:00 PM68 °FPassing clouds.10 mph73%30.04 "HgN/A
9:00 PM68 °FPassing clouds.12 mph78%30.04 "HgN/A
8:00 PM70 °FPassing clouds.15 mph73%30.04 "HgN/A
7:00 PM72 °FPartly sunny.15 mph69%30.04 "HgN/A
6:00 PM73 °FScattered clouds.16 mph69%30.01 "HgN/A
5:00 PM77 °FPassing clouds.15 mph57%30.04 "HgN/A
4:00 PM77 °FPassing clouds.16 mph57%30.04 "HgN/A
3:00 PM79 °FPassing clouds.12 mph54%30.04 "HgN/A
2:00 PM79 °FSunny.13 mph54%30.04 "Hg10 mi
1:00 PM79 °FSunny.9 mph54%30.07 "Hg10 mi
12:00 PM77 °FSunny.8 mph54%30.07 "Hg10 mi
11:00 AM75 °FSunny.8 mph57%30.09 "Hg10 mi
10:00 AM73 °FSunny.10 mph61%30.09 "Hg10 mi
9:00 AM70 °FSunny.7 mph69%30.09 "Hg10 mi
8:00 AM68 °FSunny.7 mph78%30.07 "Hg10 mi
7:00 AM64 °FSunny.6 mph88%30.07 "Hg10 mi
6:00 AM64 °FClear.6 mph88%30.07 "Hg10 mi
5:00 AM66 °FPassing clouds.5 mph83%30.04 "HgN/A
4:00 AM64 °FPassing clouds.7 mph88%30.04 "HgN/A
3:00 AM66 °FPassing clouds.6 mph83%30.07 "HgN/A
2:00 AM66 °FClear.6 mph78%30.09 "Hg10 mi
1:00 AM68 °FPartly cloudy.7 mph78%30.09 "HgN/A
Weather by CustomWeather, © 2016

See weather overviewHow to use our weather pages